Location: A�t Lahcen
(32.8243°N, 5.4246°W)
Time: 02:05:18
(UTC+00:00)

CZ-2C R/B - Pass Details

Date: 27 January 2021
Orbit: 390 x 584 km, 35.0° (Epoch: 26 February)

Event Time Altitude Azimuth Distance (km) Brightness Sun altitude
Exits shadow 05:18:36 55° 54° (NE) 672 1.9 -25.5°
Drops below altitude 10° 05:22:06 10° 87° (E) 1,804 5.0 -24.7°
Sets 05:24:19 0° 90° (E) 2,665 6.2 -24.3°
